Sitka, Alaska, United States (99835)
Lat: 57.05N, Lon: 135.33W
Wx Zone: AKZ023
Local Info
Past Weather Observations for Monday, July 28, 2014

NOTE: This archive is for the closest National Weather Service station to Sitka. Information may differ from the station used for current weather conditions.

Click here for Long-term Archive

Time Weather Temperature Dewpoint Humidity Pressure Winds Precip Visibility
23:53
Partly Cloudy
52°F / 11°C 50°F / 10°C 94% 30.01 in
(1016 mb)
E 4.6 mph
(E 7 kph)
- 10SM
22:53
Overcast
54°F / 12°C 52°F / 11°C 94% 29.98 in
(1015 mb)
E 4.6 mph
(E 7 kph)
0.00 in
(0.00 mm)
10SM
21:53
Overcast
Light Rain
54°F / 12°C 52°F / 11°C 94% 29.98 in
(1015 mb)
ENE 5.8 mph
(ENE 9 kph)
0.01 in
(0.25 mm)
10SM
21:13
Overcast
Light Rain
54°F / 12°C 52°F / 11°C 94% 30.01 in
(1016 mb)
NE 4.6 mph
(NE 7 kph)
0.00 in
(0.00 mm)
10SM
20:53
Overcast
Light Rain
54°F / 12°C 52°F / 11°C 94% 30.01 in
(1016 mb)
Calm 0.03 in
(0.76 mm)
9SM
20:05
Overcast
Light Rain
55°F / 13°C 54°F / 12°C 94% 29.98 in
(1015 mb)
S 4.6 mph
(S 7 kph)
0.01 in
(0.25 mm)
5SM
19:53
Overcast
Light Rain
55°F / 13°C 54°F / 12°C 94% 29.98 in
(1015 mb)
SSE 5.8 mph
(SSE 9 kph)
0.06 in
(1.52 mm)
2SM
19:46
Overcast
Light Rain
55°F / 13°C 54°F / 12°C 94% 29.98 in
(1015 mb)
SW 5.8 mph
(SW 9 kph)
0.05 in
(1.27 mm)
2 1/2SM
19:39
Overcast
Light Rain
55°F / 13°C 54°F / 12°C 94% 29.98 in
(1015 mb)
SW 8.1 mph
(SW 13 kph)
0.05 in
(1.27 mm)
7SM
19:24
Overcast
Light Rain
55°F / 13°C 54°F / 12°C 94% 29.98 in
(1015 mb)
SW 9.2 mph
(SW 15 kph)
0.04 in
(1.02 mm)
7SM
19:10
Overcast
Light Rain
55°F / 13°C 54°F / 12°C 94% 29.98 in
(1015 mb)
SSW 4.6 mph
(SSW 7 kph)
0.02 in
(0.51 mm)
2 1/2SM
18:53
Overcast
Light Rain
55°F / 13°C 54°F / 12°C 94% 29.98 in
(1015 mb)
Calm 0.01 in
(0.25 mm)
10SM
17:53
Overcast
Light Rain
55°F / 13°C 54°F / 12°C 94% 29.98 in
(1015 mb)
SSW 4.6 mph
(SSW 7 kph)
0.13 in
(3.30 mm)
10SM
17:46
Overcast
Light Rain
55°F / 13°C 54°F / 12°C 94% 29.98 in
(1015 mb)
SSW 5.8 mph
(SSW 9 kph)
0.13 in
(3.30 mm)
10SM
17:21
Overcast
Light Rain
55°F / 13°C 54°F / 12°C 94% 29.98 in
(1015 mb)
SW 6.9 mph
(SW 11 kph)
0.12 in
(3.05 mm)
6SM
16:53
Overcast
Rain
55°F / 13°C 54°F / 12°C 94% 29.98 in
(1015 mb)
SSW 6.9 mph
(SSW 11 kph)
0.13 in
(3.30 mm)
2SM
15:53
Overcast
Light Rain
57°F / 14°C 55°F / 13°C 94% 29.98 in
(1015 mb)
SW 4.6 mph
(SW 7 kph)
0.04 in
(1.02 mm)
6SM
14:53
Overcast
Light Rain
57°F / 14°C 55°F / 13°C 94% 29.98 in
(1015 mb)
SW 9.2 mph
(SW 15 kph)
0.03 in
(0.76 mm)
6SM
13:53
Overcast
Light Rain
57°F / 14°C 55°F / 13°C 94% 29.98 in
(1015 mb)
SSW 5.8 mph
(SSW 9 kph)
0.02 in
(0.51 mm)
8SM
13:49
Overcast
Light Rain
57°F / 14°C 55°F / 13°C 94% 29.98 in
(1015 mb)
SSW 5.8 mph
(SSW 9 kph)
0.02 in
(0.51 mm)
7SM
13:39
Overcast
Light Rain
57°F / 14°C 55°F / 13°C 94% 29.98 in
(1015 mb)
SSW 5.8 mph
(SSW 9 kph)
0.02 in
(0.51 mm)
7SM
13:30
Overcast
Light Rain
57°F / 14°C 55°F / 13°C 94% 29.98 in
(1015 mb)
W 6.9 mph
(W 11 kph)
0.01 in
(0.25 mm)
8SM
13:18
Overcast
Light Rain
59°F / 15°C 55°F / 13°C 88% 29.98 in
(1015 mb)
W 5.8 mph
(W 9 kph)
0.01 in
(0.25 mm)
7SM
12:53
Overcast
Light Rain
59°F / 15°C 57°F / 14°C 94% 29.98 in
(1015 mb)
W 4.6 mph
(W 7 kph)
0.02 in
(0.51 mm)
10SM
11:53
Overcast
Light Rain
59°F / 15°C 55°F / 13°C 88% 30.01 in
(1016 mb)
NW 6.9 mph
(NW 11 kph)
0.00 in
(0.00 mm)
9SM
10:53
Overcast
Light Rain
57°F / 14°C 55°F / 13°C 94% 30.01 in
(1016 mb)
NNW 5.8 mph
(NNW 9 kph)
0.02 in
(0.51 mm)
9SM
09:53
Overcast
Light Rain
57°F / 14°C 55°F / 13°C 94% 30.04 in
(1017 mb)
Calm 0.00 in
(0.00 mm)
10SM
08:53
Overcast
Light Rain
57°F / 14°C 55°F / 13°C 94% 30.01 in
(1016 mb)
Calm 0.01 in
(0.25 mm)
8SM
07:53
Overcast
Light Rain
57°F / 14°C 55°F / 13°C 94% 30.01 in
(1016 mb)
N 3.5 mph
(N 6 kph)
0.01 in
(0.25 mm)
10SM
06:53
Overcast
57°F / 14°C 55°F / 13°C 94% 30.04 in
(1017 mb)
Calm - 10SM
05:53
Overcast
55°F / 13°C 55°F / 13°C 100% 30.04 in
(1017 mb)
ESE 3.5 mph
(ESE 6 kph)
0.00 in
(0.00 mm)
10SM
04:53
Overcast
55°F / 13°C 55°F / 13°C 100% 30.04 in
(1017 mb)
Calm - 10SM
04:00
Overcast
57°F / 14°C 55°F / 13°C 94% 30.06 in
(1018 mb)
N 4.6 mph
(N 7 kph)
- 10SM
03:53
Overcast
57°F / 14°C 55°F / 13°C 94% 30.06 in
(1018 mb)
NNW 4.6 mph
(NNW 7 kph)
0.00 in
(0.00 mm)
10SM
03:00
Overcast
Light Rain
55°F / 13°C 55°F / 13°C 100% 30.06 in
(1018 mb)
Calm 0.00 in
(0.00 mm)
10SM
02:53
Overcast
Light Rain
57°F / 14°C 55°F / 13°C 94% 30.06 in
(1018 mb)
NNW 3.5 mph
(NNW 6 kph)
0.04 in
(1.02 mm)
8SM
01:53
Overcast
Light Rain
55°F / 13°C 55°F / 13°C 100% 30.06 in
(1018 mb)
SSE 9.2 mph
(SSE 15 kph)
0.03 in
(0.76 mm)
6SM
00:53
Overcast
Light Rain
55°F / 13°C 55°F / 13°C 100% 30.04 in
(1017 mb)
Calm 0.02 in
(0.51 mm)
6SM
00:35
Overcast
Light Rain
55°F / 13°C 55°F / 13°C 100% 30.04 in
(1017 mb)
N 3.5 mph
(N 6 kph)
0.01 in
(0.25 mm)
6SM
Time Weather Temperature Dewpoint Humidity Pressure Winds Precip Visibility


Weather for websites

WeatherForYou.com, LLC is not responsible for any damages or problems caused by this service. Current weather conditions are obtained from the closest station including government and personal stations which may have varying degrees of accuracy. Weather forecasts are derived from the NOAA NDFD. Like all things, this site belongs to Jesus Christ... He just trusts me to maintain it. If you have any questions or comments email webmaster@weatherforyou.com

Copyright © 2014, WeatherForYou.com LLC. All rights reserved.